This is the latest recevied weather packets stored in our database for station/object KC3VCX. If no packets are shown the sender has not sent any weather packets the latest 10 day(s).
| Time | Temp. | Humidity | Pressure | Rain* | Wind** | Luminosity | Snow |
|---|---|---|---|---|---|---|---|
| 1777550476 | 8.89° C | 85% | 1011.7 hPa | 0 mm | - | 93 W/m² | - |
| 1777550173 | 8.89° C | 86% | 1011.8 hPa | 0 mm | - | 117 W/m² | - |
| 1777549869 | 8.89° C | 86% | 1011.6 hPa | 0 mm | - | 98 W/m² | - |
| 1777549565 | 8.33° C | 88% | 1011.7 hPa | 0 mm | - | 86 W/m² | - |
| 1777549261 | 8.33° C | 89% | 1011.7 hPa | 0 mm | - | 70 W/m² | - |
| 1777548957 | 8.33° C | 90% | 1011.7 hPa | 0 mm | - | 90 W/m² | - |
| 1777548655 | 8.33° C | 91% | 1011.8 hPa | 0 mm | - | 101 W/m² | - |
| 1777548351 | 7.78° C | 92% | 1011.5 hPa | 0 mm | - | 51 W/m² | - |
| 1777548049 | 7.78° C | 92% | 1011.5 hPa | 0 mm | - | 45 W/m² | - |
| 1777547745 | 7.78° C | 92% | 1011.6 hPa | 0 mm | - | 59 W/m² | - |
| 1777547441 | 7.78° C | 92% | 1011.7 hPa | 0 mm | - | 47 W/m² | - |
| 1777547139 | 7.78° C | 92% | 1011.6 hPa | 0 mm | - | 41 W/m² | - |
| 1777546836 | 7.78° C | 92% | 1011.7 hPa | 0 mm | - | 25 W/m² | - |
| 1777546532 | 7.78° C | 92% | 1011.8 hPa | 0 mm | - | 14 W/m² | - |
| 1777546229 | 7.78° C | 92% | 1011.7 hPa | 0 mm | - | 11 W/m² | - |
| 1777545927 | 7.78° C | 92% | 1011.8 hPa | 0 mm | - | 8 W/m² | - |
| 1777545623 | 7.78° C | 92% | 1011.8 hPa | 0 mm | - | 5 W/m² | - |
| 1777545319 | 7.78° C | 92% | 1011.8 hPa | 0 mm | - | 5 W/m² | - |
| 1777545017 | 7.78° C | 92% | 1011.9 hPa | 0 mm | - | 4 W/m² | - |
| 1777544714 | 7.78° C | 92% | 1011.8 hPa | 0 mm | - | 3 W/m² | - |
| 1777544409 | 7.78° C | 92% | 1011.7 hPa | 0 mm | - | 2 W/m² | - |
| 1777544105 | 7.78° C | 92% | 1011.7 hPa | 0 mm | - | 1 W/m² | - |
| 1777543803 | 7.78° C | 92% | 1012 hPa | 0 mm | - | 0 W/m² | - |
| 1777543499 | 7.78° C | 92% | 1011.9 hPa | 0 mm | - | 0 W/m² | - |
| 1777543195 | 7.78° C | 92% | 1011.9 hPa | 0 mm | - | 0 W/m² | - |
* Rain latest hour (hover to see other rain measurements)
** Current wind speed in m/s (hover to see current wind gust speed)